Regional Weather Roundup
Issued by NWS

Home | Current Version | Previous Version | Graphics & Text | Print | Product List | Glossary On
Versions: 1 2 3 4 5 6 7 8 9 10 11 12 13 14 15 16 17 18 19 20 21 22 23 24 25 26 27 28 29 30 31 32 33 34 35 36 37 38 39 40 41 42 43 44 45 46 47 48 49 50
000
ASUS44 KMEG 281700
RWRTN
TENNESSEE HOURLY STATE WEATHER ROUNDUP
NATIONAL WEATHER SERVICE MEMPHIS TN
1200 PM CDT SUN AUG 28 2016

TNZ002-004-019-021-049-052-054-088>092-281800-
WEST TENNESSEE

CITY           SKY/WX    TMP DP  RH WIND       PRES   REMARKS
MEMPHIS INTL   MOSUNNY   94  71  47 E12G18    30.11F HX 101
NWS MEMPHIS      N/A     91 N/A N/A MISG        N/A
JACKSON        SUNNY     90  77  65 E8        30.13F HX 103
DYERSBURG      SUNNY     88  75  66 MISG      30.13S HX  97
UNION CITY     MOSUNNY   88  75  66 NE6       30.13F HX  97
PARIS          SUNNY     88  73  62 CALM      30.16F HX  96
$$

TNZ008-025-027-028-033-062-065-066-281800-
NORTH MIDDLE TENNESSEE

CITY           SKY/WX    TMP DP  RH WIND       PRES   REMARKS
NASHVILLE      MOSUNNY   90  72  55 VRB3      30.17F HX  97
CLARKSVILLE    SUNNY     89  72  56 VRB3      30.16F HX  96
SMYRNA         MOSUNNY   90  72  55 MISG      30.19R HX  96
COOKEVILLE     SUNNY     95  73  49 CALM      30.19F HX 105
CROSSVILLE     SUNNY     86  67  52 NE5       30.25F
$$

TNZ061-075-076-078-094-096-097-281800-
SOUTH MIDDLE TENNESSEE

CITY           SKY/WX    TMP DP  RH WIND       PRES   REMARKS
SHELBYVILLE    SUNNY     91  72  52 CALM      30.19S HX  98
$$

TNZ017-018-042-046-047-281800-
NORTHEAST TENNESSEE

CITY           SKY/WX    TMP DP  RH WIND       PRES   REMARKS
TRI CITIES     MOSUNNY   89  70  53 VRB3      30.23F HX  94
$$

TNZ012-013-036-069-073-074-281800-
CENTRAL EAST TENNESSEE

CITY           SKY/WX    TMP DP  RH WIND       PRES   REMARKS
KNOXVILLE      MOSUNNY   87  68  52 NW3       30.18F HX  90
GATLINBURG       N/A     88  72  58 VRB3      30.18F HX  94
$$

TNZ083-085-099-281800-
SOUTHEAST TENNESSEE

CITY           SKY/WX    TMP DP  RH WIND       PRES   REMARKS
CHATTANOOGA    MOSUNNY   89  70  53 VRB3      30.18F HX  94
$$

SKY/WX REPORTED AS FAIR MEANS FEW OR NO CLOUDS BELOW
12 THOUSAND FEET.





USA.gov is the U.S. government's official web portal to all federal, state and local government web resources and services.